Location: Oberkirch
(48.5323°N, 8.0787°E)
Time: 14:30:49
(UTC+00:00)

S-56A Canister/Altair - Pass Details

Date: 21 February 2026
Orbit: 633 x 2484 km, 38.9° (Epoch: 7 March)

Event Time Altitude Azimuth Distance (km) Brightness Sun altitude
Exits shadow 05:11:25 - 241° (WSW) 4,084 10.7 -12.8°
Reaches altitude 10° 05:12:53 10° 233° (SW) 4,062 10.8 -12.6°
Maximum altitude 05:15:27 11° 219° (SW) 4,156 10.9 -12.2°
Drops below altitude 10° 05:18:12 10° 205° (SSW) 4,424 11.2 -11.7°
Sets 05:26:29 0° 177° (S) 5,857 12.1 -10.3°
